SCP
8 9 9 8 7 6 6 6 5 5 3 3 2 2 2 2 2 2 1 1 1 1 1 1 1 1 1 0 0 0 0 0 0 0 0 0 0 0 0 0 0 0 0
8 8 8 7 6 6 6 6 6 5 4 3 2 2 2 2 2 2 1 1 1 1 1 1 0 0 0 0 0 0 0 0 0 0 0 0 0 0 0 0 0 0 0
7 7 7 7 6 6 6 6 6 6 5 3 3 2 2 2 2 2 1 1 1 1 1 1 0 0 0 0 0 0 0 0 0 0 0 0 0 0 0 0 0 0 0
7 6 6 6 7 6 6 6 6 7 6 4 3 3 3 2 2 2 1 1 1 1 1 1 1 0 0 0 0 0 0 0 0 0 0 0 0 0 0 0 0 0 0
7 6 6 6 6 6 6 6 7 7 6 4 3 3 2 2 2 1 1 1 1 1 1 1 1 0 0 0 0 0 0 0 0 0 0 0 0 0 0 0 0 0 0
8 8 8 7 6 6 7 7 7 8 7 5 4 3 2 1 1 1 1 1 1 1 1 1 1 1 0 0 0 0 0 0 0 0 0 0 0 0 0 0 0 0 0
11 10 9 7 6 6 7 8 8 8 7 6 5 3 2 1 1 1 1 1 1 1 1 1 1 0 1 0 0 0 1 1 1 1 1 0 0 0 0 0 0 0 0
10 9 7 6 5 6 7 8 8 8 8 6 5 3 2 1 1 1 1 1 1 1 1 1 0 0 1 1 1 1 1 1 1 1 1 1 0 0 0 0 0 0 0
5 5 5 5 4 5 7 8 8 8 7 6 4 3 2 1 1 1 1 1 1 1 1 1 1 1 1 1 1 1 1 1 1 1 1 1 1 1 0 0 0 0 0
3 3 3 3 4 5 6 7 7 7 6 5 4 3 2 2 1 1 1 1 1 1 1 1 1 1 1 1 1 1 1 1 1 1 1 1 1 1 1 1 1 1 0
4 3 3 3 3 4 5 6 6 6 5 4 3 3 2 2 1 1 1 1 1 1 1 1 1 1 1 1 1 1 1 1 1 1 1 1 1 1 1 1 1 1 1
4 4 3 3 3 3 4 5 5 5 4 3 3 2 2 2 1 1 1 1 1 1 1 1 1 1 1 1 1 1 1 1 1 1 1 1 1 1 1 1 1 1 1
5 5 4 3 3 3 3 4 4 4 3 3 3 2 2 2 1 1 1 1 1 1 1 1 1 1 1 1 1 1 1 1 1 1 1 1 1 1 1 1 1 1 1
6 5 4 4 3 3 3 3 4 4 3 3 4 4 3 2 2 2 2 1 1 1 1 1 1 1 1 1 1 1 0 0 0 1 1 1 1 1 1 1 1 1 1
5 5 4 4 4 4 4 4 4 4 3 3 4 5 4 3 2 2 2 1 1 1 1 1 1 1 1 1 0 0 0 0 0 0 1 1 0 0 0 0 0 0 0
5 5 5 5 5 5 5 4 3 3 3 3 4 5 4 3 2 2 1 1 1 1 1 1 1 1 1 0 0 0 0 0 0 0 0 0 0 0 0 0 0 0 0
6 6 5 5 5 5 4 3 2 2 2 2 3 3 3 3 2 2 1 1 1 1 1 1 0 1 0 0 0 0 0 0 0 0 0 0 0 0 0 0 0 0 0
7 6 6 5 5 4 3 2 2 2 1 1 1 2 2 3 3 2 2 1 1 1 1 1 1 0 0 0 0 0 0 0 0 0 0 0 0 0 0 0 0 0 0
8 8 7 5 4 4 4 3 2 2 2 1 1 2 2 3 3 3 2 1 1 1 1 1 0 0 0 0 0 0 0 0 0 0 0 0 0 0 0 0 0 0 0
9 9 8 6 5 4 4 3 3 2 2 2 1 1 2 3 3 2 1 0 0 0 0 0 0 0 0 0 0 0 0 0 0 0 0 0 0 0 0 0 0 0 0
11 10 8 6 5 5 4 4 3 3 2 2 2 1 2 2 2 1 1 0 0 0 0 0 0 0 0 0 0 0 0 0 0 0 0 0 0 0 0 0 0 0 0
12 11 8 6 5 5 5 5 4 4 3 2 2 1 1 1 1 1 1 1 1 0 0 0 0 0 0 0 0 0 0 0 0 0 0 0 0 0 0 0 0 0 0
12 10 8 5 4 5 6 6 5 4 3 2 2 2 1 1 1 1 1 1 1 1 0 0 0 0 0 0 0 0 0 0 0 0 0 0 0 0 0 0 0 0 0
9 8 6 5 4 4 5 4 4 3 3 3 2 2 1 1 1 1 1 1 1 1 0 0 1 0 0 0 0 0 0 0 0 0 0 0 0 0 0 0 0 0 0
6 6 5 4 3 4 4 4 4 4 4 3 3 2 1 1 1 1 1 1 1 1 0 0 0 0 0 0 0 0 0 0 0 0 0 0 0 0 0 0 0 0 0
5 5 4 3 3 3 4 4 4 4 5 4 3 2 1 1 1 1 1 1 1 0 0 0 0 0 0 0 0 0 0 0 0 0 0 0 0 0 0 0 0 0 0
Wind_Speed
8 10 11 12 11 10 10 9 9 8 6 4 3 3 3 3 3 3 5 5 5 6 5 4 4 3 3 3 3 2 2 1 1 1 1 2 1 2 3 3 4 5 6
7 8 9 10 10 10 10 9 9 8 7 5 4 3 3 3 3 3 4 5 5 5 5 5 4 4 3 3 3 3 2 1 2 3 1 1 3 2 2 2 4 4 4
13 11 10 10 10 11 11 10 8 8 7 6 4 3 2 1 1 2 2 4 5 5 4 5 4 4 4 3 3 3 4 2 2 2 4 3 3 2 3 2 2 3 3
11 11 10 10 11 11 10 9 9 8 7 7 6 6 5 4 4 3 3 3 4 5 5 5 5 4 4 4 4 4 3 4 2 2 2 3 4 2 2 2 2 2 2
12 11 10 10 9 9 9 8 8 7 6 7 7 6 4 3 2 3 3 3 2 3 5 5 5 5 4 4 4 3 4 3 4 3 2 1 1 2 3 2 2 1 1
10 8 8 7 6 7 7 7 8 7 7 7 6 6 5 5 4 4 4 3 2 2 4 4 4 4 4 5 4 4 4 4 4 3 3 3 2 3 3 3 3 2 2
8 8 8 8 7 7 8 7 8 7 6 6 6 6 6 6 6 5 4 4 3 2 4 4 4 4 4 4 4 4 4 4 4 4 3 3 4 3 3 3 2 2 2
6 7 8 9 8 8 8 8 8 6 6 6 6 5 5 4 3 4 4 4 4 4 4 4 4 4 4 4 4 3 4 4 4 5 4 3 4 3 3 3 3 2 2
7 6 5 6 8 8 8 8 8 6 6 6 5 4 4 4 4 3 3 3 3 3 3 4 4 3 3 3 3 3 4 3 4 4 4 4 3 3 3 3 4 4 3
6 6 5 4 5 7 7 7 7 7 6 6 5 5 4 4 3 3 3 3 3 3 3 3 3 2 2 2 2 2 2 3 3 2 3 3 2 2 2 2 2 3 4
7 7 6 5 5 6 7 6 6 6 6 6 5 4 4 3 3 3 3 3 2 2 2 2 2 2 2 2 2 2 1 2 2 2 2 3 2 2 2 2 2 2 2
8 8 8 7 6 6 6 6 6 6 6 6 5 4 3 3 3 3 2 2 2 2 2 2 2 2 2 2 2 2 1 2 2 2 2 3 2 2 2 1 2 2 2
7 7 7 7 6 6 6 6 6 6 6 6 5 4 3 3 3 3 2 3 3 3 2 2 2 2 2 2 1 1 1 1 1 2 2 2 2 2 1 1 1 1 2
8 7 6 6 6 5 6 6 6 6 6 6 5 4 4 4 3 3 3 3 3 3 2 2 2 2 2 1 1 1 1 1 0 0 0 0 1 2 1 1 2 2 2
8 8 7 6 6 6 6 6 6 6 6 6 5 4 4 4 3 3 3 3 3 3 3 3 2 1 1 1 1 1 2 1 1 1 1 1 2 2 1 1 1 2 2
9 8 8 8 7 7 7 7 6 6 6 6 5 4 4 4 3 3 3 3 3 3 3 3 2 2 1 2 2 2 2 2 2 1 1 2 2 3 3 3 3 3 3
8 9 9 8 8 7 7 7 6 6 6 6 6 5 5 5 3 3 3 3 3 3 3 2 3 2 1 2 3 3 2 2 1 1 1 1 2 2 1 3 4 3 4
9 8 7 7 6 5 6 6 6 6 6 6 5 5 5 5 4 4 3 3 3 3 3 3 2 2 1 3 4 4 3 2 2 1 1 1 1 2 2 3 3 3 2
8 7 7 7 7 7 8 8 6 6 6 6 5 5 5 5 5 4 4 3 3 3 2 2 2 2 1 2 3 4 2 2 1 1 2 2 1 3 4 4 3 3 2
7 7 7 7 8 7 8 9 7 6 6 6 6 5 6 6 5 4 4 3 3 3 3 2 2 2 1 2 4 4 2 2 1 2 2 3 3 3 3 3 3 2 1
7 8 8 7 7 7 8 8 7 6 5 5 6 5 5 5 5 4 3 4 3 3 3 2 2 2 2 2 3 3 2 2 2 1 1 1 3 3 3 3 2 3 3
7 7 7 6 5 7 8 8 6 5 5 6 6 5 5 5 5 4 4 3 4 3 2 2 2 2 2 2 2 3 3 3 2 2 0 0 2 2 3 2 2 4 4
6 6 7 7 5 5 7 7 5 6 6 6 6 5 5 4 4 4 4 3 3 2 2 2 1 1 2 2 3 3 3 3 2 1 2 1 2 2 1 2 3 4 3
5 5 7 7 5 4 5 6 6 6 6 6 6 5 5 4 4 3 3 3 2 2 2 2 1 1 0 1 1 1 1 2 2 1 2 3 4 3 3 2 2 1 2
5 5 6 6 5 5 5 5 6 6 7 6 5 5 5 5 4 3 2 2 1 2 3 2 2 2 2 2 2 1 1 1 2 2 1 1 1 1 1 1 1 1 1
5 6 6 6 5 5 5 4 5 6 6 5 4 4 4 4 4 4 3 6 3 2 2 2 3 1 1 2 1 1 1 2 3 3 1 1 1 1 1 1 1 1 1
Wind_Direction
173 160 158 157 155 156 157 161 160 165 157 152 149 148 162 171 177 185 181 177 173 169 164 164 168 167 168 181 175 156 166 191 141 90 13 340 285 233 222 208 197 204 207
155 160 159 161 162 164 164 165 165 165 166 163 159 159 160 174 185 188 183 180 175 175 172 165 169 172 171 181 178 155 158 204 160 138 117 342 334 308 251 220 210 210 201
165 169 169 169 166 170 171 172 170 169 171 164 149 133 116 104 135 183 188 194 184 181 174 172 174 182 176 185 190 175 171 192 219 170 154 164 226 285 308 269 231 212 204
162 171 173 172 175 178 172 167 170 171 172 166 166 164 168 180 197 189 191 198 189 183 179 173 179 188 185 189 199 188 182 174 203 222 204 184 171 177 284 313 289 237 223
166 172 174 175 174 170 168 166 165 170 172 173 177 173 176 185 177 169 182 198 202 194 187 183 185 191 193 198 202 193 190 184 193 200 197 201 203 184 182 251 287 315 278
160 161 162 157 160 161 162 162 163 170 174 176 177 177 179 175 166 176 184 196 204 205 203 194 195 198 199 202 204 202 201 202 202 204 192 183 190 201 192 215 235 251 276
151 152 156 159 163 163 165 165 167 172 174 173 176 181 182 179 178 181 186 187 194 204 212 201 202 204 204 204 199 201 211 205 204 212 217 211 213 194 186 193 218 233 253
144 155 165 167 167 168 168 169 172 172 173 175 180 179 179 180 182 182 182 191 197 204 204 197 201 206 204 211 206 209 219 212 214 226 223 223 227 208 197 195 191 222 251
150 154 163 168 166 168 171 173 171 169 176 178 173 173 174 177 182 185 187 193 198 198 194 193 199 204 203 206 201 213 225 219 218 228 230 232 236 218 214 205 191 189 216
149 143 149 164 165 164 164 166 169 174 173 173 172 174 177 182 179 173 184 188 188 182 172 184 191 200 202 195 190 207 216 207 222 222 230 241 245 230 219 211 210 198 195
165 157 156 167 163 155 154 159 166 162 166 170 167 166 175 176 170 173 187 186 175 170 169 179 185 189 189 183 181 205 205 213 235 239 232 242 237 231 233 225 215 207 184
163 158 155 156 153 154 157 161 167 162 162 161 158 163 166 163 161 169 179 173 164 160 160 151 152 163 164 166 171 203 217 215 231 243 240 251 243 234 236 226 222 214 191
149 146 152 156 156 161 162 165 165 163 157 154 154 158 160 159 164 166 165 154 146 140 131 132 142 151 145 143 159 174 189 203 228 244 237 248 228 240 244 221 220 219 190
151 149 153 155 156 160 159 155 157 157 153 150 152 157 162 159 155 150 141 138 140 140 137 134 141 136 128 132 145 155 162 149 121 295 203 227 199 212 214 217 218 192 163
159 159 158 159 160 158 154 148 147 149 148 145 149 156 150 143 138 130 126 122 121 121 124 118 105 97 115 126 124 125 129 122 91 50 53 70 84 95 134 163 185 177 171
168 161 159 165 167 163 155 149 147 148 141 140 143 145 132 126 127 126 119 113 112 110 106 109 101 78 66 81 105 113 108 110 115 102 59 56 47 55 66 80 103 138 155
167 167 168 167 169 165 158 157 154 145 140 146 144 140 136 133 130 125 117 117 116 109 107 107 98 85 53 82 99 101 112 112 109 110 99 77 59 51 52 62 68 78 110
167 169 163 158 157 154 149 144 139 138 139 142 142 141 138 136 132 127 122 116 108 111 111 105 106 100 80 98 98 92 96 90 85 89 108 109 52 58 78 79 67 57 54
163 162 158 153 149 149 140 127 129 134 138 141 143 145 143 139 136 130 121 115 110 107 112 108 103 101 69 91 108 102 100 86 63 55 68 98 86 74 88 93 87 66 39
135 143 142 139 141 147 139 130 135 140 146 147 147 145 143 142 140 134 126 119 118 116 107 91 86 94 81 105 120 109 112 104 81 54 58 73 94 100 109 115 118 113 86
122 128 130 136 143 140 131 130 136 148 149 139 135 133 133 135 131 125 125 123 117 108 99 90 58 52 60 103 119 119 118 139 129 105 46 41 88 100 114 125 139 161 140
116 122 122 120 128 133 131 132 139 139 128 124 124 126 131 134 128 125 122 120 122 118 107 88 59 25 20 63 101 119 128 141 143 157 192 81 85 100 116 125 125 121 115
116 116 119 118 116 126 133 136 143 133 126 122 122 120 114 109 116 122 124 118 115 121 121 109 104 38 12 28 77 116 129 138 133 149 139 105 83 76 86 105 112 115 111
111 114 118 121 119 117 123 133 134 128 124 125 126 127 121 109 98 97 110 119 126 134 140 137 141 141 42 17 21 52 100 117 119 116 89 72 73 75 72 72 87 105 132
109 113 119 122 126 121 116 123 128 129 127 126 125 123 118 120 107 89 76 112 137 169 171 178 173 170 202 249 245 199 178 177 174 129 80 57 66 70 44 38 48 72 91
115 116 115 119 126 125 120 124 129 129 130 131 132 131 127 123 122 118 86 45 45 47 116 141 149 158 192 197 201 196 175 172 156 128 135 162 171 171 170 157 116 78 109